Location: Unspecified
(44.4377°N, 88.0525°W)
Time: 00:32:19
(UTC-05:00)

Cosmos 1674 - Visible Passes

Search period start: 31 October 2014 00:00
Search period end: 09 November 2014 23:00
Orbit: 514 x 540 km, 82.5° (Epoch: 29 October)

Date Brightness Start Highest point End Pass type
(mag) Time Alt. Az. Time Alt. Az. Time Alt. Az.
31 Oct 5.0 04:44:20 22° NE 04:44:20 22° NE 04:45:57 10° NNE visible
31 Oct 4.6 06:19:40 14° NW 06:19:40 14° NW 06:20:56 10° NNW visible
01 Nov 5.6 04:34:00 12° NNE 04:34:00 12° NNE 04:34:24 10° NNE visible
01 Nov 5.0 06:09:18 11° NNW 06:09:18 11° NNW 06:09:36 10° NNW visible
